Weather History for Key West NAF, FL

Change the Weather History Date:

Friday, March 29, 2013

  Actual Average Record
Temperature  
Mean Temperature 68 °F -  
Max Temperature 75 °F 80 °F 86 °F (2011)
Min Temperature 62 °F 71 °F 60 °F (1958)
Cooling Degree Days 4    
Growing Degree Days 18 (Base 50)    
Moisture  
Dew Point 53 °F    
Average Humidity 59    
Maximum Humidity 78    
Minimum Humidity 43    
Precipitation  
Precipitation 0.00 in - - ()
Sea Level Pressure  
Sea Level Pressure 30.23 in    
Wind  
Wind Speed 10 mph (ENE)    
Max Wind Speed 16 mph    
Max Gust Speed 22 mph    
Visibility 10 miles    
Events      
Averages and records for this station are not official NWS values.
T = Trace of Precipitation, MM = Missing Value Source: NWS Daily Summary

Daily Weather History Graph

Daily Weather History Graph

Search for Another Location

Airport:

Trip Planner

Search our weather history database for the weather conditions in past years. The results will help you decide how hot, cold, wet, or windy it might be!

Date:

Astronomy

Mar. 29, 2013 Rise Set
Actual Time 7:21 AM EDT 7:41 PM EDT
Civil Twilight 6:58 AM EDT 8:04 PM EDT
Nautical Twilight 6:31 AM EDT 8:31 PM EDT
Astronomical Twilight 6:04 AM EDT 8:58 PM EDT
Moon 10:18 PM EDT (3/29) 8:47 AM EDT (3/29)
Length of Visible Light 13h 06m
Length of Day
12h 20m
Waning Gibbous, 93% of the Moon is Illuminated
Mar 29
Waning Gibbous
Apr 3
Last Quarter
Apr 10
New
Apr 18
First Quarter
Apr 25
Full

Hourly Weather History & Observations

Time (EDT) Temp. Dew Point Humidity Pressure Visibility Wind Dir Wind Speed Gust Speed Precip Events Conditions
12:53 AM 64.0 °F 57.0 °F 78% 30.23 in 10.0 mi NNE 6.9 mph - N/A   Clear
1:53 AM 64.0 °F 54.0 °F 70% 30.23 in 10.0 mi NNE 5.8 mph - N/A   Clear
2:53 AM 63.0 °F 54.0 °F 72% 30.22 in 10.0 mi NE 8.1 mph - N/A   Clear
3:53 AM 64.0 °F 53.1 °F 67% 30.21 in 10.0 mi NE 6.9 mph - N/A   Clear
4:53 AM 63.0 °F 54.0 °F 72% 30.20 in 10.0 mi NE 6.9 mph - N/A   Clear
5:53 AM 63.0 °F 52.0 °F 67% 30.21 in 10.0 mi NE 8.1 mph - N/A   Clear
5:55 AM 62.6 °F 51.8 °F 68% 30.21 in 10.0 mi NE 6.9 mph - N/A   Clear
6:53 AM 63.0 °F 52.0 °F 67% 30.22 in 10.0 mi NE 8.1 mph - N/A   Clear
7:53 AM 64.0 °F 52.0 °F 65% 30.24 in 10.0 mi NE 8.1 mph - N/A   Partly Cloudy
8:53 AM 66.9 °F 53.1 °F 61% 30.25 in 10.0 mi NE 13.8 mph - N/A   Partly Cloudy
9:53 AM 69.1 °F 52.0 °F 54% 30.27 in 10.0 mi NE 11.5 mph - N/A   Partly Cloudy
10:53 AM 70.0 °F 51.1 °F 51% 30.28 in 10.0 mi NE 15.0 mph 21.9 mph N/A   Clear
11:53 AM 72.0 °F 51.1 °F 48% 30.28 in 10.0 mi NE 15.0 mph - N/A   Partly Cloudy
12:53 PM 73.0 °F 51.1 °F 46% 30.27 in 10.0 mi NE 16.1 mph 20.7 mph N/A   Partly Cloudy
1:53 PM 75.0 °F 52.0 °F 44% 30.25 in 10.0 mi ENE 15.0 mph - N/A   Scattered Clouds
2:53 PM 75.9 °F 52.0 °F 43% 30.22 in 10.0 mi East 15.0 mph - N/A   Scattered Clouds
3:53 PM 75.0 °F 53.1 °F 46% 30.21 in 10.0 mi East 15.0 mph - N/A   Scattered Clouds
4:53 PM 73.9 °F 55.0 °F 52% 30.20 in 10.0 mi East 13.8 mph - N/A   Scattered Clouds
5:53 PM 73.9 °F 54.0 °F 50% 30.20 in 10.0 mi East 13.8 mph - N/A   Scattered Clouds
6:53 PM 72.0 °F 54.0 °F 53% 30.20 in 10.0 mi East 12.7 mph - N/A   Scattered Clouds
7:53 PM 69.1 °F 54.0 °F 58% 30.20 in 10.0 mi East 11.5 mph - N/A   Scattered Clouds
8:53 PM 69.1 °F 54.0 °F 58% 30.21 in 6.0 mi East 11.5 mph - N/A   Haze
9:53 PM 69.1 °F 54.0 °F 58% 30.22 in 10.0 mi ESE 12.7 mph - N/A   Partly Cloudy
10:53 PM 70.0 °F 54.0 °F 57% 30.22 in 10.0 mi East 12.7 mph - N/A   Scattered Clouds
11:53 PM 69.1 °F 54.0 °F 58% 30.23 in 10.0 mi East 11.5 mph - N/A   Clear